Weather History for St. Athan, United Kingdom

Change the Weather History Date:

Sunday, January 27, 2013

  Actual Average (EGFF) Record (EGFF)
Temperature  
Mean Temperature 42 °F -  
Max Temperature 48 °F 45 °F 53 °F (2002)
Min Temperature 37 °F 36 °F 21 °F (2000)
Degree Days  
Heating Degree Days 22    
Moisture  
Dew Point 40 °F    
Average Humidity 78    
Maximum Humidity 93    
Minimum Humidity 63    
Precipitation  
Precipitation 0.16 in - - ()
Sea Level Pressure  
Sea Level Pressure 29.42 in    
Wind  
Wind Speed 18 mph ()    
Max Wind Speed 29 mph    
Max Gust Speed 44 mph    
Visibility 8.0 miles    
Events Rain    
Averages and records for this station are not official NWS values.
T = Trace of Precipitation, MM = Missing Value Source: Averaged Metar Reports

Daily Weather History Graph

Daily Weather History Graph

Search for Another Location

Airport:

Trip Planner

Search our weather history database for the weather conditions in past years. The results will help you decide how hot, cold, wet, or windy it might be!

Date:

Astronomy

Jan. 27, 2013 Rise Set
Actual Time 7:58 AM GMT 4:54 PM GMT
Civil Twilight 7:22 AM GMT 5:31 PM GMT
Nautical Twilight 6:41 AM GMT 6:12 PM GMT
Astronomical Twilight 6:02 AM GMT 6:51 PM GMT
Moon 5:45 PM GMT (1/27) 7:34 AM GMT (1/27)
Length of Visible Light 10h 09m
Length of Day
8h 56m
Full, 100% of the Moon is Illuminated
Jan 27
Full
Feb 3
Last Quarter
Feb 10
New
Feb 17
First Quarter
Feb 25
Full

Hourly Weather History & Observations

Time (GMT) Temp. Windchill Dew Point Humidity Pressure Visibility Wind Dir Wind Speed Gust Speed Precip Events Conditions
12:50 AM 51.8 °F - 48.2 °F 88% 29.36 in 6.2 mi SSW 13.8 mph - N/A Rain Light Rain Showers
1:50 AM 51.8 °F - 48.2 °F 88% 29.30 in 6.2 mi SSW 15.0 mph - N/A Rain Rain
2:50 AM 52 °F - 49 °F 84% 29.26 in 9 mi SSW 17.3 mph - - Rain Rain
2:50 AM 51.8 °F - 48.2 °F 88% 29.24 in 6.2 mi SSW 17.3 mph - N/A Rain Rain
3:50 AM 48.2 °F - 44.6 °F 87% 29.24 in 6.2 mi WSW 23.0 mph - N/A Rain Light Rain
4:50 AM 50.0 °F - 44.6 °F 82% 29.24 in 6.2 mi WSW 24.2 mph - N/A   Mostly Cloudy
5:50 AM 48 °F - 44 °F 83% 29.28 in 10 mi West 28.8 mph - - Rain Rain
5:50 AM 48.2 °F - 44.6 °F 87% 29.27 in 6.2 mi West 28.8 mph 43.7 mph N/A   Scattered Clouds
6:50 AM 48.2 °F - 41.0 °F 76% 29.30 in 6.2 mi West 26.5 mph - N/A   Mostly Cloudy
7:50 AM 46.4 °F 37.9 °F 37.4 °F 71% 29.33 in 6.2 mi West 25.3 mph 42.6 mph N/A Rain Light Rain Showers
8:50 AM 46 °F - 38 °F 63% 29.37 in 12 mi West 26.5 mph - - Rain Rain
8:50 AM 46.4 °F 37.7 °F 37.4 °F 71% 29.36 in 6.2 mi West 26.5 mph - N/A   Scattered Clouds
9:50 AM 46.4 °F 37.7 °F 37.4 °F 71% 29.39 in 6.2 mi West 26.5 mph 39.1 mph N/A   Partly Cloudy
10:50 AM 46.4 °F 37.4 °F 37.4 °F 71% 29.42 in 6.2 mi West 28.8 mph 42.6 mph N/A   Scattered Clouds
11:50 AM 46 °F - 39 °F 67% 29.45 in 16 mi West 20.7 mph - -   Scattered Clouds
11:50 AM 46.4 °F 38.7 °F 39.2 °F 76% 29.44 in 6.2 mi West 20.7 mph - N/A   Partly Cloudy
12:50 PM 48.2 °F - 37.4 °F 66% 29.44 in 6.2 mi WSW 26.5 mph - N/A   Scattered Clouds
1:50 PM 44.6 °F 35.5 °F 37.4 °F 76% 29.44 in 6.2 mi West 25.3 mph - N/A   Unknown
2:50 PM 44 °F - 37 °F 70% 29.47 in 9 mi West 23.0 mph - - Rain Light Rain Showers
2:50 PM 44.6 °F 35.9 °F 37.4 °F 76% 29.44 in 6.2 mi West 23.0 mph - N/A Rain Light Rain Showers
3:50 PM 44.6 °F 35.1 °F 37.4 °F 76% 29.47 in 6.2 mi West 27.6 mph - N/A   Partly Cloudy
4:50 PM 41.0 °F 31.9 °F 37.4 °F 87% 29.47 in 6.2 mi West 19.6 mph 33.4 mph N/A Rain Light Rain Showers
5:50 PM 44 °F - 37 °F 69% 29.52 in 17 mi WSW 24.2 mph - - Rain Rain
5:50 PM 44.6 °F 35.7 °F 37.4 °F 76% 29.50 in 6.2 mi WSW 24.2 mph - N/A   Unknown
6:50 PM 44.6 °F 35.9 °F 39.2 °F 81% 29.50 in 6.2 mi SW 23.0 mph - N/A   Mostly Cloudy
7:50 PM 37.4 °F 32.8 °F 35.6 °F 93% 29.53 in 6.2 mi West 5.8 mph - N/A Rain Rain Showers
8:50 PM 42 °F - 37 °F 75% 29.55 in 17 mi WSW 11.5 mph - - Rain Rain Showers
8:50 PM 42.8 °F 36.6 °F 37.4 °F 81% 29.53 in 6.2 mi WSW 11.5 mph - N/A Rain Rain Showers
9:50 PM 41.0 °F 33.9 °F 35.6 °F 81% 29.56 in - WNW 12.7 mph 24.2 mph N/A Rain Heavy Rain Showers
10:50 PM 41.0 °F 32.5 °F 35.6 °F 81% 29.56 in 6.2 mi West 17.3 mph - N/A   Mostly Cloudy
11:50 PM 39 °F - 36 °F 84% 29.62 in 16 mi West 5.8 mph - -   Scattered Clouds
11:50 PM 39.2 °F 35.0 °F 35.6 °F 87% 29.59 in 6.2 mi West 5.8 mph - N/A   Mostly Cloudy